Location: DaVinci Observatory
(43.1080°N, 78.6453°W)
Time: 04:23:04
(UTC-04:00)

Envisat - Pass Details

Date: 12 October 2017
Orbit: 764 x 766 km, 98.2° (Epoch: 21 October)

Event Time Altitude Azimuth Distance (km) Brightness Sun altitude
Exits shadow 21:33:57 44° 283° (WNW) 1,058 4.0 -32.7°
Drops below altitude 10° 21:38:13 10° 335° (NNW) 2,310 6.0 -33.4°
Sets 21:40:37 0° 341° (NNW) 3,241 6.8 -33.8°
